| time (UTC) | temp F | wind direction | speed knots | gust knots | rain 1hr in | rain 24hr in | rain mn in | humidity % | barometer mb |
| 20260502230004 | 65 | 338 | 3.5 | 7.8 | 0.00 | 0.00 | 0.00 | 66 | 1012.2 |
| 20260502225504 | 64 | 45 | 2.6 | 7.8 | 0.00 | 0.00 | 0.00 | 67 | 1012.2 |
| 20260502225004 | 64 | 45 | 4.3 | 7.8 | 0.00 | 0.00 | 0.00 | 66 | 1012.2 |
| 20260502224504 | 64 | 45 | 3.5 | 7.8 | 0.00 | 0.00 | 0.00 | 67 | 1012.3 |
| 20260502224004 | 64 | 45 | 2.6 | 5.2 | 0.00 | 0.00 | 0.00 | 67 | 1012.3 |
| 20260502223504 | 64 | 0 | 2.6 | 7.8 | 0.00 | 0.00 | 0.00 | 67 | 1012.4 |
| 20260502223024 | 64 | 45 | 2.6 | 6.1 | 0.00 | 0.00 | 0.00 | 67 | 1012.6 |
| 20260502222504 | 64 | 45 | 3.5 | 7.8 | 0.00 | 0.00 | 0.00 | 67 | 1012.8 |
| 20260502222004 | 64 | 45 | 3.5 | 7.8 | 0.00 | 0.00 | 0.00 | 66 | 1012.9 |
| 20260502221504 | 64 | 45 | 2.6 | 7.8 | 0.00 | 0.00 | 0.00 | 66 | 1012.9 |
| 20260502221004 | 64 | 45 | 3.5 | 7.0 | 0.00 | 0.00 | 0.00 | 66 | 1013.1 |
| 20260502220504 | 65 | 45 | 2.6 | 7.8 | 0.00 | 0.00 | 0.00 | 66 | 1013.0 |
| 20260502220004 | 65 | 45 | 3.5 | 8.7 | 0.00 | 0.00 | 0.00 | 65 | 1013.1 |
| 20260502215504 | 66 | 45 | 2.6 | 6.1 | 0.00 | 0.00 | 0.00 | 63 | 1013.1 |
| 20260502215004 | 67 | 45 | 3.5 | 7.0 | 0.00 | 0.00 | 0.00 | 62 | 1013.3 |
| 20260502214504 | 68 | 45 | 3.5 | 8.7 | 0.00 | 0.00 | 0.00 | 62 | 1013.2 |
| 20260502214024 | 69 | 45 | 2.6 | 5.2 | 0.00 | 0.00 | 0.00 | 60 | 1013.3 |
| 20260502213504 | 70 | 338 | 1.7 | 5.2 | 0.00 | 0.00 | 0.00 | 59 | 1013.3 |
| 20260502213004 | 70 | 338 | 1.7 | 3.5 | 0.00 | 0.00 | 0.00 | 58 | 1013.3 |
| 20260502212504 | 70 | 225 | 0.9 | 2.6 | 0.00 | 0.00 | 0.00 | 59 | 1013.3 |
| 20260502212004 | 70 | 315 | 1.7 | 3.5 | 0.00 | 0.00 | 0.00 | 59 | 1013.4 |
| 20260502211504 | 70 | 315 | 1.7 | 5.2 | 0.00 | 0.00 | 0.00 | 60 | 1013.4 |
| 20260502211024 | 69 | 225 | 1.7 | 3.5 | 0.00 | 0.00 | 0.00 | 61 | 1013.4 |
| 20260502210504 | 69 | 45 | 1.7 | 5.2 | 0.00 | 0.00 | 0.00 | 60 | 1013.4 |
| 20260502210004 | 69 | 338 | 1.7 | 5.2 | 0.00 | 0.00 | 0.00 | 60 | 1013.5 |
| 20260502205504 | 70 | 225 | 1.7 | 3.5 | 0.00 | 0.00 | 0.00 | 60 | 1013.6 |
| 20260502205003 | 69 | 338 | 1.7 | 5.2 | 0.00 | 0.00 | 0.00 | 61 | 1013.9 |
| 20260502204504 | 69 | 315 | 1.7 | 4.3 | 0.00 | 0.00 | 0.00 | 61 | 1013.8 |
| 20260502204004 | 69 | 338 | 2.6 | 5.2 | 0.00 | 0.00 | 0.00 | 61 | 1013.8 |
| 20260502203504 | 69 | 338 | 1.7 | 5.2 | 0.00 | 0.00 | 0.00 | 62 | 1014.0 |
| 20260502203004 | 68 | 248 | 1.7 | 5.2 | 0.00 | 0.00 | 0.00 | 63 | 1014.0 |
| 20260502202503 | 68 | 225 | 2.6 | 7.0 | 0.00 | 0.00 | 0.00 | 62 | 1014.0 |
| 20260502202004 | 68 | 225 | 2.6 | 5.2 | 0.00 | 0.00 | 0.00 | 63 | 1014.0 |
| 20260502201503 | 68 | 338 | 1.7 | 5.2 | 0.00 | 0.00 | 0.00 | 63 | 1014.1 |
| 20260502201004 | 68 | 225 | 3.5 | 7.0 | 0.00 | 0.00 | 0.00 | 63 | 1014.2 |
| 20260502200504 | 68 | 315 | 1.7 | 5.2 | 0.00 | 0.00 | 0.00 | 63 | 1014.3 |
| 20260502200004 | 67 | 315 | 3.5 | 7.0 | 0.00 | 0.00 | 0.00 | 63 | 1014.5 |
| 20260502195504 | 67 | 315 | 3.5 | 7.0 | 0.00 | 0.00 | 0.00 | 64 | 1014.6 |
| 20260502195004 | 67 | 315 | 2.6 | 7.8 | 0.00 | 0.00 | 0.00 | 63 | 1014.5 |
| 20260502194504 | 67 | 293 | 1.7 | 4.3 | 0.00 | 0.00 | 0.00 | 66 | 1014.5 |
| 20260502194024 | 66 | 225 | 2.6 | 6.1 | 0.00 | 0.00 | 0.00 | 66 | 1014.6 |
| 20260502193503 | 66 | 248 | 2.6 | 7.8 | 0.00 | 0.00 | 0.00 | 66 | 1014.5 |
| 20260502193003 | 66 | 225 | 1.7 | 6.1 | 0.00 | 0.00 | 0.00 | 67 | 1014.6 |
| 20260502192503 | 65 | 293 | 2.6 | 7.0 | 0.00 | 0.00 | 0.00 | 67 | 1014.6 |
| 20260502192004 | 65 | 225 | 3.5 | 10.4 | 0.00 | 0.00 | 0.00 | 67 | 1014.5 |
| 20260502191503 | 64 | 248 | 2.6 | 6.1 | 0.00 | 0.00 | 0.00 | 68 | 1014.6 |
| 20260502191004 | 64 | 248 | 2.6 | 6.1 | 0.00 | 0.00 | 0.00 | 67 | 1014.7 |
| 20260502190504 | 65 | 248 | 2.6 | 6.1 | 0.00 | 0.00 | 0.00 | 67 | 1014.6 |
| 20260502190004 | 64 | 315 | 1.7 | 7.8 | 0.00 | 0.00 | 0.00 | 68 | 1014.8 |
| 20260502185503 | 64 | 315 | 2.6 | 6.1 | 0.00 | 0.00 | 0.00 | 69 | 1014.7 |
| 20260502185004 | 64 | 315 | 1.7 | 5.2 | 0.00 | 0.00 | 0.00 | 68 | 1014.8 |
| 20260502184504 | 64 | 293 | 2.6 | 7.0 | 0.00 | 0.00 | 0.00 | 68 | 1014.8 |
| 20260502184003 | 64 | 293 | 1.7 | 5.2 | 0.00 | 0.00 | 0.00 | 68 | 1014.8 |
| 20260502183504 | 64 | 225 | 2.6 | 7.0 | 0.00 | 0.00 | 0.00 | 68 | 1014.7 |
| 20260502183023 | 64 | 270 | 1.7 | 6.1 | 0.00 | 0.00 | 0.00 | 68 | 1014.7 |
| 20260502182003 | 64 | 293 | 1.7 | 5.2 | 0.00 | 0.00 | 0.00 | 69 | 1014.6 |
| 20260502181524 | 63 | 315 | 1.7 | 5.2 | 0.00 | 0.00 | 0.00 | 69 | 1014.6 |
| 20260502181004 | 63 | 315 | 1.7 | 5.2 | 0.00 | 0.00 | 0.00 | 71 | 1014.7 |
| 20260502180504 | 62 | 225 | 1.7 | 3.5 | 0.00 | 0.00 | 0.00 | 72 | 1014.7 |
| 20260502170504 | 59 | 293 | 1.7 | 4.3 | 0.00 | 0.00 | 0.00 | 78 | 1014.7 |
| 20260502164003 | 58 | 248 | 1.7 | 4.3 | 0.00 | 0.00 | 0.00 | 79 | 1014.7 |
| 20260502163523 | 58 | 248 | 1.7 | 4.3 | 0.00 | 0.00 | 0.00 | 79 | 1014.7 |
| 20260502163003 | 58 | 225 | 1.7 | 4.3 | 0.00 | 0.00 | 0.00 | 79 | 1014.6 |
| 20260502162523 | 57 | 293 | 1.7 | 7.0 | 0.00 | 0.00 | 0.00 | 80 | 1014.6 |
| 20260502162003 | 57 | 270 | 1.7 | 7.0 | 0.00 | 0.00 | 0.00 | 80 | 1014.6 |
| 20260502161504 | 57 | 225 | 1.7 | 6.1 | 0.00 | 0.00 | 0.00 | 80 | 1014.6 |
| 20260502161003 | 57 | 248 | 1.7 | 4.3 | 0.00 | 0.00 | 0.00 | 79 | 1014.6 |
| 20260502160503 | 57 | 225 | 1.7 | 5.2 | 0.00 | 0.00 | 0.00 | 79 | 1014.6 |
| 20260502152003 | 57 | 270 | 0.9 | 4.3 | 0.00 | 0.00 | 0.00 | 80 | 1014.0 |
| 20260502151503 | 57 | 270 | 0.9 | 4.3 | 0.00 | 0.00 | 0.00 | 80 | 1014.1 |
| 20260502151003 | 57 | 270 | 1.7 | 4.3 | 0.00 | 0.00 | 0.00 | 81 | 1014.0 |
| 20260502150503 | 57 | 248 | 0.9 | 2.6 | 0.00 | 0.00 | 0.00 | 81 | 1014.0 |
| 20260502130503 | 56 | 270 | 0.9 | 2.6 | 0.00 | 0.00 | 0.00 | 83 | 1013.2 |
| 20260502123505 | 56 | 248 | 0.9 | 1.7 | 0.00 | 0.00 | 0.00 | 83 | 1013.1 |
| 20260502123004 | 56 | 225 | 0.9 | 2.6 | 0.00 | 0.00 | 0.00 | 83 | 1013.0 |
| 20260502122505 | 56 | 248 | 0.9 | 3.5 | 0.00 | 0.00 | 0.00 | 84 | 1013.0 |
| 20260502122005 | 56 | 0.0 | 1.7 | 0.00 | 0.00 | 0.00 | 84 | 1012.9 | |
| 20260502121505 | 56 | 225 | 0.9 | 2.6 | 0.00 | 0.00 | 0.00 | 84 | 1013.1 |
| 20260502121005 | 56 | 225 | 0.9 | 2.6 | 0.00 | 0.00 | 0.00 | 84 | 1013.0 |
| 20260502120504 | 56 | 0.0 | 0.9 | 0.00 | 0.00 | 0.00 | 84 | 1013.1 | |
| 20260502115505 | 56 | 338 | 0.9 | 2.6 | 0.00 | 0.00 | 0.00 | 84 | 1013.1 |
| 20260502115045 | 56 | 315 | 0.9 | 1.7 | 0.00 | 0.00 | 0.00 | 84 | 1013.1 |
| 20260502114005 | 56 | 0.0 | 1.7 | 0.00 | 0.00 | 0.00 | 83 | 1013.1 | |
| 20260502113504 | 56 | 0 | 0.9 | 2.6 | 0.00 | 0.00 | 0.00 | 83 | 1013.2 |
| 20260502113004 | 56 | 338 | 0.9 | 2.6 | 0.00 | 0.00 | 0.00 | 83 | 1013.1 |
| 20260502112530 | 56 | 315 | 0.9 | 2.6 | 0.00 | 0.00 | 0.00 | 83 | 1013.1 |
| 20260502112005 | 56 | 338 | 0.9 | 2.6 | 0.00 | 0.00 | 0.00 | 83 | 1013.1 |
| 20260502111524 | 56 | 315 | 0.9 | 1.7 | 0.00 | 0.00 | 0.00 | 84 | 1013.0 |
| 20260502111005 | 56 | 338 | 0.9 | 1.7 | 0.00 | 0.00 | 0.00 | 84 | 1013.1 |
| 20260502110504 | 56 | 338 | 0.9 | 1.7 | 0.00 | 0.00 | 0.00 | 84 | 1013.2 |
| 20260502110005 | 56 | 0.0 | 0.9 | 0.00 | 0.00 | 0.00 | 84 | 1013.1 | |
| 20260502105504 | 56 | 0.0 | 0.9 | 0.00 | 0.00 | 0.00 | 84 | 1013.2 | |
| 20260502105004 | 56 | 0.0 | 0.9 | 0.00 | 0.00 | 0.00 | 85 | 1013.3 | |
| 20260502104524 | 56 | 0.0 | 0.9 | 0.00 | 0.00 | 0.00 | 85 | 1013.1 | |
| 20260502104004 | 56 | 293 | 0.9 | 1.7 | 0.00 | 0.00 | 0.00 | 85 | 1013.2 |
| 20260502103504 | 56 | 315 | 0.9 | 1.7 | 0.00 | 0.00 | 0.00 | 85 | 1013.2 |
| 20260502103024 | 56 | 315 | 0.9 | 1.7 | 0.00 | 0.00 | 0.00 | 86 | 1013.3 |
| 20260502102505 | 56 | 315 | 0.9 | 1.7 | 0.00 | 0.00 | 0.00 | 86 | 1013.4 |
| 20260502102004 | 56 | 0.0 | 2.6 | 0.00 | 0.00 | 0.00 | 86 | 1013.2 | |
| 20260502101504 | 56 | 0.0 | 0.9 | 0.00 | 0.00 | 0.00 | 86 | 1013.3 | |
| 20260502101004 | 56 | 293 | 0.9 | 2.6 | 0.00 | 0.00 | 0.00 | 86 | 1013.4 |
| 20260502100505 | 56 | 315 | 0.9 | 2.6 | 0.00 | 0.00 | 0.00 | 87 | 1013.4 |
| 20260502091504 | 56 | 0.0 | 1.7 | 0.00 | 0.00 | 0.00 | 89 | 1013.9 | |
| 20260502091004 | 56 | 225 | 0.9 | 1.7 | 0.00 | 0.00 | 0.00 | 89 | 1013.8 |
| 20260502090504 | 55 | 0.0 | 1.7 | 0.00 | 0.00 | 0.00 | 89 | 1013.9 | |
| 20260502071504 | 53 | 0.0 | 0.9 | 0.00 | 0.00 | 0.00 | 87 | 1014.2 | |
| 20260502071004 | 53 | 0.0 | 0.9 | 0.00 | 0.00 | 0.00 | 87 | 1014.1 | |
| 20260502070504 | 53 | 0.0 | 0.9 | 0.00 | 0.00 | 0.00 | 87 | 1014.3 | |
| 20260502070005 | 53 | 0.0 | 0.9 | 0.00 | 0.00 | 0.00 | 87 | 1014.3 | |
| 20260502065504 | 53 | 0.0 | 0.9 | 0.00 | 0.00 | 0.00 | 87 | 1014.3 | |
| 20260502065004 | 53 | 0.0 | 0.9 | 0.00 | 0.00 | 0.00 | 87 | 1014.3 | |
| 20260502064504 | 53 | 0.0 | 0.9 | 0.00 | 0.00 | 0.00 | 87 | 1014.3 | |
| 20260502064004 | 53 | 0.0 | 0.9 | 0.00 | 0.00 | 0.00 | 87 | 1014.3 | |
| 20260502063524 | 53 | 0.0 | 0.9 | 0.00 | 0.00 | 0.00 | 86 | 1014.3 | |
| 20260502063004 | 53 | 0.0 | 0.9 | 0.00 | 0.00 | 0.00 | 86 | 1014.4 | |
| 20260502062524 | 53 | 0.0 | 0.9 | 0.00 | 0.00 | 0.00 | 86 | 1014.3 | |
| 20260502062003 | 53 | 0.0 | 0.9 | 0.00 | 0.00 | 0.00 | 86 | 1014.5 | |
| 20260502061524 | 54 | 0.0 | 0.9 | 0.00 | 0.00 | 0.00 | 85 | 1014.4 | |
| 20260502061004 | 54 | 0.0 | 0.9 | 0.00 | 0.00 | 0.00 | 85 | 1014.3 | |
| 20260502060504 | 54 | 0.0 | 0.9 | 0.00 | 0.00 | 0.00 | 85 | 1014.3 | |
| 20260502060004 | 54 | 0.0 | 0.9 | 0.00 | 0.00 | 0.00 | 84 | 1014.4 | |
| 20260502055503 | 54 | 0.0 | 0.9 | 0.00 | 0.00 | 0.00 | 84 | 1014.4 | |
| 20260502055009 | 54 | 0.0 | 0.9 | 0.00 | 0.00 | 0.00 | 84 | 1014.5 | |
| 20260502054504 | 54 | 0.0 | 0.9 | 0.00 | 0.00 | 0.00 | 84 | 1014.5 | |
| 20260502054004 | 54 | 0.0 | 0.9 | 0.00 | 0.00 | 0.00 | 84 | 1014.5 | |
| 20260502053503 | 55 | 0.0 | 1.7 | 0.00 | 0.00 | 0.00 | 84 | 1014.6 | |
| 20260502053004 | 55 | 0 | 0.9 | 1.7 | 0.00 | 0.00 | 0.00 | 84 | 1014.5 |
| 20260502052524 | 55 | 0 | 0.9 | 1.7 | 0.00 | 0.00 | 0.00 | 84 | 1014.5 |
| 20260502052044 | 55 | 45 | 0.9 | 1.7 | 0.00 | 0.00 | 0.00 | 84 | 1014.5 |
| 20260502051504 | 55 | 0.0 | 0.9 | 0.00 | 0.00 | 0.00 | 84 | 1014.5 | |
| 20260502051004 | 55 | 0.0 | 0.9 | 0.00 | 0.00 | 0.00 | 84 | 1014.4 | |
| 20260502050504 | 55 | 0.0 | 1.7 | 0.00 | 0.00 | 0.00 | 83 | 1014.5 | |
| 20260502045504 | 55 | 0.0 | 1.7 | 0.00 | 0.00 | 0.00 | 83 | 1014.4 | |
| 20260502045024 | 56 | 45 | 0.9 | 1.7 | 0.00 | 0.00 | 0.00 | 83 | 1014.3 |
| 20260502044504 | 56 | 45 | 0.9 | 1.7 | 0.00 | 0.00 | 0.00 | 83 | 1014.4 |
| 20260502044004 | 56 | 45 | 0.9 | 2.6 | 0.00 | 0.00 | 0.00 | 83 | 1014.2 |
| 20260502043503 | 56 | 45 | 1.7 | 3.5 | 0.00 | 0.00 | 0.00 | 82 | 1014.2 |
| 20260502043003 | 56 | 45 | 0.9 | 2.6 | 0.00 | 0.00 | 0.00 | 82 | 1014.1 |
| 20260502042504 | 56 | 45 | 0.9 | 2.6 | 0.00 | 0.00 | 0.00 | 82 | 1014.0 |
| 20260502042003 | 56 | 45 | 1.7 | 3.5 | 0.00 | 0.00 | 0.00 | 81 | 1014.0 |
| 20260502041503 | 56 | 45 | 0.9 | 2.6 | 0.00 | 0.00 | 0.00 | 81 | 1014.0 |
| 20260502041003 | 57 | 45 | 0.9 | 3.5 | 0.00 | 0.00 | 0.00 | 81 | 1013.9 |
| 20260502040504 | 57 | 45 | 0.9 | 2.6 | 0.00 | 0.00 | 0.00 | 81 | 1013.9 |
| 20260502040003 | 57 | 45 | 1.7 | 3.5 | 0.00 | 0.00 | 0.00 | 80 | 1013.8 |
| 20260502035504 | 57 | 45 | 0.9 | 3.5 | 0.00 | 0.00 | 0.00 | 80 | 1013.7 |
| 20260502035004 | 57 | 45 | 1.7 | 4.3 | 0.00 | 0.00 | 0.00 | 80 | 1013.7 |
| 20260502034503 | 57 | 45 | 1.7 | 3.5 | 0.00 | 0.00 | 0.00 | 79 | 1013.5 |
| 20260502034003 | 57 | 45 | 1.7 | 4.3 | 0.00 | 0.00 | 0.00 | 79 | 1013.5 |
| 20260502033524 | 57 | 45 | 0.9 | 3.5 | 0.00 | 0.00 | 0.00 | 78 | 1013.4 |
| 20260502033003 | 58 | 45 | 1.7 | 3.5 | 0.00 | 0.00 | 0.00 | 78 | 1013.3 |
| 20260502032504 | 58 | 45 | 1.7 | 3.5 | 0.00 | 0.00 | 0.00 | 78 | 1013.2 |
| 20260502032003 | 58 | 338 | 1.7 | 6.1 | 0.00 | 0.00 | 0.00 | 77 | 1013.2 |
| 20260502031504 | 58 | 45 | 1.7 | 4.3 | 0.00 | 0.00 | 0.00 | 77 | 1013.1 |
| 20260502031004 | 59 | 0 | 1.7 | 6.1 | 0.00 | 0.00 | 0.00 | 76 | 1013.1 |
| 20260502030504 | 59 | 0 | 0.9 | 4.3 | 0.00 | 0.00 | 0.00 | 76 | 1013.0 |
| 20260502030003 | 59 | 45 | 1.7 | 3.5 | 0.00 | 0.00 | 0.00 | 75 | 1012.9 |
| 20260502025544 | 60 | 45 | 1.7 | 3.5 | 0.00 | 0.00 | 0.00 | 75 | 1012.9 |
| 20260502025003 | 60 | 338 | 0.9 | 3.5 | 0.00 | 0.00 | 0.00 | 74 | 1012.7 |
| 20260502024544 | 60 | 45 | 1.7 | 4.3 | 0.00 | 0.00 | 0.00 | 73 | 1012.8 |
| 20260502024003 | 60 | 338 | 1.7 | 4.3 | 0.00 | 0.00 | 0.00 | 73 | 1012.7 |
| 20260502023504 | 61 | 45 | 1.7 | 5.2 | 0.00 | 0.00 | 0.00 | 72 | 1012.7 |
| 20260502023003 | 61 | 45 | 1.7 | 7.0 | 0.00 | 0.00 | 0.00 | 72 | 1012.7 |
| 20260502022523 | 61 | 45 | 2.6 | 7.0 | 0.00 | 0.00 | 0.00 | 72 | 1012.6 |
| 20260502022043 | 61 | 45 | 2.6 | 6.1 | 0.00 | 0.00 | 0.00 | 72 | 1012.6 |
| 20260502021523 | 62 | 45 | 2.6 | 6.1 | 0.00 | 0.00 | 0.00 | 72 | 1012.6 |
| 20260502021003 | 62 | 45 | 2.6 | 6.1 | 0.00 | 0.00 | 0.00 | 72 | 1012.6 |
| 20260502020504 | 62 | 45 | 2.6 | 6.1 | 0.00 | 0.00 | 0.00 | 72 | 1012.6 |
| 20260502020003 | 62 | 45 | 1.7 | 6.1 | 0.00 | 0.00 | 0.00 | 73 | 1012.5 |
| 20260502015503 | 62 | 45 | 2.6 | 6.1 | 0.00 | 0.00 | 0.00 | 74 | 1012.5 |
| 20260502015003 | 63 | 45 | 2.6 | 7.8 | 0.00 | 0.00 | 0.00 | 76 | 1012.6 |
| 20260502014503 | 63 | 45 | 3.5 | 6.1 | 0.00 | 0.00 | 0.00 | 75 | 1012.6 |
| 20260502014003 | 63 | 45 | 3.5 | 7.0 | 0.00 | 0.00 | 0.00 | 75 | 1012.5 |
| 20260502013503 | 63 | 45 | 2.6 | 6.1 | 0.00 | 0.00 | 0.00 | 74 | 1012.6 |
| 20260502013003 | 64 | 45 | 2.6 | 7.0 | 0.00 | 0.00 | 0.00 | 74 | 1012.5 |
| 20260502012503 | 64 | 45 | 1.7 | 5.2 | 0.00 | 0.00 | 0.00 | 75 | 1012.5 |
| 20260502012003 | 64 | 45 | 2.6 | 7.0 | 0.00 | 0.00 | 0.00 | 75 | 1012.4 |
| 20260502011523 | 64 | 45 | 3.5 | 8.7 | 0.00 | 0.00 | 0.00 | 73 | 1012.6 |
| 20260502011003 | 64 | 45 | 3.5 | 8.7 | 0.00 | 0.00 | 0.00 | 73 | 1012.6 |
| 20260502010503 | 65 | 45 | 3.5 | 7.8 | 0.00 | 0.00 | 0.00 | 72 | 1012.6 |
| 20260502010003 | 65 | 45 | 2.6 | 7.0 | 0.00 | 0.00 | 0.00 | 72 | 1012.6 |
| 20260502005543 | 65 | 45 | 3.5 | 7.0 | 0.00 | 0.00 | 0.00 | 71 | 1012.6 |
| 20260502005043 | 65 | 45 | 2.6 | 8.7 | 0.00 | 0.00 | 0.00 | 70 | 1012.5 |
| 20260502004503 | 66 | 45 | 1.7 | 6.1 | 0.00 | 0.00 | 0.00 | 71 | 1012.7 |
| 20260502004003 | 66 | 45 | 2.6 | 6.1 | 0.00 | 0.00 | 0.00 | 71 | 1012.6 |
| 20260502003503 | 66 | 45 | 2.6 | 6.1 | 0.00 | 0.00 | 0.00 | 70 | 1012.7 |
| 20260502003003 | 66 | 45 | 3.5 | 8.7 | 0.00 | 0.00 | 0.00 | 70 | 1012.6 |
| 20260502002543 | 65 | 45 | 3.5 | 7.8 | 0.00 | 0.00 | 0.00 | 69 | 1012.7 |
| 20260502002003 | 65 | 45 | 2.6 | 7.0 | 0.00 | 0.00 | 0.00 | 70 | 1012.7 |
| 20260502001503 | 65 | 45 | 3.5 | 7.8 | 0.00 | 0.00 | 0.00 | 69 | 1012.7 |
| 20260502001003 | 66 | 45 | 4.3 | 9.6 | 0.00 | 0.00 | 0.00 | 68 | 1012.7 |
| 20260502000503 | 66 | 338 | 2.6 | 7.0 | 0.00 | 0.00 | 0.00 | 69 | 1012.7 |
| 20260502000003 | 66 | 45 | 3.5 | 7.8 | 0.00 | 0.00 | 0.00 | 68 | 1012.8 |
| 20260501235503 | 66 | 45 | 2.6 | 7.8 | 0.00 | 0.00 | 0.00 | 69 | 1012.8 |
| 20260501235003 | 66 | 45 | 2.6 | 7.0 | 0.00 | 0.00 | 0.00 | 69 | 1012.9 |
| 20260501234503 | 66 | 45 | 2.6 | 7.0 | 0.00 | 0.00 | 0.00 | 69 | 1013.1 |
| 20260501234003 | 66 | 45 | 3.5 | 7.8 | 0.00 | 0.00 | 0.00 | 68 | 1013.2 |
| 20260501233503 | 66 | 45 | 2.6 | 7.0 | 0.00 | 0.00 | 0.00 | 68 | 1013.2 |
| 20260501233023 | 66 | 45 | 2.6 | 7.0 | 0.00 | 0.00 | 0.00 | 68 | 1013.1 |
| 20260501232503 | 66 | 45 | 3.5 | 6.1 | 0.00 | 0.00 | 0.00 | 68 | 1013.3 |
| 20260501232003 | 66 | 45 | 2.6 | 7.0 | 0.00 | 0.00 | 0.00 | 69 | 1013.4 |
| 20260501231503 | 66 | 45 | 3.5 | 6.1 | 0.00 | 0.00 | 0.00 | 69 | 1013.4 |
| 20260501231003 | 66 | 45 | 3.5 | 7.8 | 0.00 | 0.00 | 0.00 | 69 | 1013.5 |
| 20260501230503 | 66 | 45 | 3.5 | 7.8 | 0.00 | 0.00 | 0.00 | 68 | 1013.7 |